ボリソフ彗星

C/2013 N4 ( Borisov )

English version
Home page
Updated on September 27, 2014

---------------------------------------------------------------------

・ プロフィール

発見日 2013年7月8日
発見光度 16.8等
発見者 Gennady Borisov (Crimean Laboratory of the Sternberg Astronomical Institute)

・ 写真集

・ 軌道要素

Epoch 2013 Aug. 16.0 TT = JDT 2456520.5
T 2013 Aug. 21.51469 TT                                 MPC
q   1.2104059            (2000.0)            P               Q
z  +0.0208068      Peri.  142.28126     -0.33193429     -0.86951501
 +/-0.0000030      Node   322.61039     +0.65012846     +0.07005290
e   0.9748153      Incl.   37.03491     +0.68348564     -0.48891332
From 255 observations 2013 July 10-2014 Apr. 30, mean residual 0".6.

・ 星図

・ 光度変化

        m1 = 8.5 + 5 logΔ + 17.5 log r

---------------------------------------------------------------------

軌道要素はM.P.E.C. 2014-J58に掲載されたものです。
星図はステラナビゲータ Ver.8 (アストロアーツ) で作成したものです。
光度グラフはComet for Windowsで作成したものです。

---------------------------------------------------------------------

Copyright(C) Seiichi Yoshida (comet@aerith.net). All rights reserved.